Time,TemperatureF,DewpointF,PressureIn,WindDirection,WindDirectionDegrees,WindSpeedMPH,WindSpeedGustMPH,Humidity,HourlyPrecipIn,Conditions,Clouds,dailyrainin,SoftwareType,DateUTC
2013-04-28 00:01:00,55.3,52.1,30.06,North,-999,-999.0,0.0,89,0.00,,---,0.00,VWS V14.01,2013-04-28 04:01:00,
2013-04-28 00:03:00,55.1,51.9,30.06,North,-999,-999.0,0.0,89,0.00,,---,0.00,VWS V14.01,2013-04-28 04:03:00,
2013-04-28 00:08:00,55.1,51.9,30.06,North,-999,-999.0,0.0,89,0.00,,---,0.00,VWS V14.01,2013-04-28 04:08:00,
2013-04-28 00:09:00,55.1,51.9,30.06,North,-999,-999.0,0.0,89,0.00,,---,0.00,VWS V14.01,2013-04-28 04:09:00,
2013-04-28 00:14:00,55.1,51.6,30.06,North,-999,-999.0,0.0,88,0.00,,---,0.00,VWS V14.01,2013-04-28 04:14:00,
2013-04-28 00:19:00,55.1,51.9,30.05,North,-999,-999.0,0.0,89,0.00,,---,0.00,VWS V14.01,2013-04-28 04:19:00,
2013-04-28 00:24:00,55.1,51.6,30.06,North,-999,-999.0,0.0,88,0.00,,---,0.00,VWS V14.01,2013-04-28 04:24:00,
2013-04-28 00:29:00,55.1,51.9,30.05,North,-999,-999.0,0.0,89,0.00,,---,0.00,VWS V14.01,2013-04-28 04:29:00,
2013-04-28 00:34:00,55.1,51.9,30.05,North,-999,-999.0,0.0,89,0.00,,---,0.00,VWS V14.01,2013-04-28 04:34:00,
2013-04-28 00:39:00,55.1,51.9,30.06,North,-999,-999.0,0.0,89,0.00,,---,0.00,VWS V14.01,2013-04-28 04:39:00,
2013-04-28 00:44:00,55.1,51.6,30.06,North,-999,-999.0,0.0,88,0.00,,---,0.00,VWS V14.01,2013-04-28 04:44:00,
2013-04-28 00:49:00,55.1,51.9,30.06,North,-999,-999.0,0.0,89,0.00,,---,0.00,VWS V14.01,2013-04-28 04:49:00,
2013-04-28 00:54:00,55.1,51.9,30.05,North,-999,-999.0,0.0,89,0.00,,---,0.00,VWS V14.01,2013-04-28 04:54:00,
2013-04-28 00:59:00,55.1,51.9,30.05,North,-999,-999.0,0.0,89,0.00,,---,0.00,VWS V14.01,2013-04-28 04:59:00,
2013-04-28 01:05:00,55.1,51.9,30.05,North,-999,-999.0,0.0,89,0.00,,---,0.00,VWS V14.01,2013-04-28 05:05:00,
2013-04-28 01:10:00,54.9,51.7,30.06,North,-999,-999.0,0.0,89,0.00,,---,0.00,VWS V14.01,2013-04-28 05:10:00,
2013-04-28 01:15:00,55.1,51.9,30.06,North,-999,-999.0,0.0,89,0.00,,---,0.00,VWS V14.01,2013-04-28 05:15:00,
2013-04-28 01:20:00,55.1,51.9,30.06,North,-999,-999.0,0.0,89,0.00,,---,0.00,VWS V14.01,2013-04-28 05:20:00,
2013-04-28 01:25:00,55.1,51.9,30.05,North,-999,-999.0,0.0,89,0.01,,---,0.01,VWS V14.01,2013-04-28 05:25:00,
2013-04-28 01:30:00,55.1,51.9,30.05,North,-999,-999.0,0.0,89,0.01,,---,0.01,VWS V14.01,2013-04-28 05:30:00,
2013-04-28 01:32:00,55.1,51.9,30.05,North,-999,-999.0,0.0,89,0.01,,---,0.01,VWS V14.01,2013-04-28 05:32:00,
2013-04-28 01:35:00,55.1,51.9,30.05,North,-999,-999.0,0.0,89,0.01,,---,0.01,VWS V14.01,2013-04-28 05:35:00,
2013-04-28 01:41:00,55.1,51.9,30.05,North,-999,-999.0,0.0,89,0.01,,---,0.01,VWS V14.01,2013-04-28 05:41:00,
2013-04-28 02:00:00,54.7,51.5,30.04,North,-999,-999.0,0.0,89,0.01,,---,0.01,VWS V14.01,2013-04-28 06:00:00,
2013-04-28 02:05:00,54.7,51.5,30.04,North,-999,-999.0,0.0,89,0.01,,---,0.01,VWS V14.01,2013-04-28 06:05:00,
2013-04-28 02:10:00,54.5,51.3,30.04,North,-999,-999.0,0.0,89,0.01,,---,0.01,VWS V14.01,2013-04-28 06:10:00,
2013-04-28 02:15:00,54.7,51.5,30.03,North,-999,-999.0,0.0,89,0.01,,---,0.01,VWS V14.01,2013-04-28 06:15:00,
2013-04-28 02:20:00,54.7,51.5,30.03,North,-999,-999.0,0.0,89,0.01,,---,0.01,VWS V14.01,2013-04-28 06:20:00,
2013-04-28 02:25:00,54.5,51.3,30.03,North,-999,-999.0,0.0,89,0.00,,---,0.01,VWS V14.01,2013-04-28 06:25:00,
2013-04-28 02:30:00,54.5,51.3,30.03,North,-999,-999.0,0.0,89,0.00,,---,0.01,VWS V14.01,2013-04-28 06:30:00,
2013-04-28 02:35:00,54.4,51.2,30.02,North,-999,-999.0,0.0,89,0.00,,---,0.01,VWS V14.01,2013-04-28 06:35:00,
2013-04-28 02:40:00,54.4,51.2,30.01,North,-999,-999.0,0.0,89,0.00,,---,0.01,VWS V14.01,2013-04-28 06:40:00,
2013-04-28 02:45:00,54.4,51.2,30.02,North,-999,-999.0,0.0,89,0.00,,---,0.01,VWS V14.01,2013-04-28 06:45:00,
2013-04-28 02:50:00,54.4,51.2,30.03,North,-999,-999.0,0.0,89,0.00,,---,0.01,VWS V14.01,2013-04-28 06:50:00,
2013-04-28 02:55:00,54.4,51.2,30.02,North,-999,-999.0,0.0,89,0.00,,---,0.01,VWS V14.01,2013-04-28 06:55:00,
2013-04-28 03:01:00,54.4,51.2,30.02,North,-999,-999.0,0.0,89,0.00,,---,0.01,VWS V14.01,2013-04-28 07:01:00,
2013-04-28 03:06:00,54.4,51.2,30.02,North,-999,-999.0,0.0,89,0.00,,---,0.01,VWS V14.01,2013-04-28 07:06:00,
2013-04-28 03:11:00,54.4,51.2,30.01,North,-999,-999.0,0.0,89,0.00,,---,0.01,VWS V14.01,2013-04-28 07:11:00,
2013-04-28 03:17:00,54.4,51.2,30.01,North,-999,-999.0,0.0,89,0.00,,---,0.01,VWS V14.01,2013-04-28 07:17:00,
2013-04-28 04:00:00,54.4,51.5,30.00,North,-999,-999.0,0.0,90,0.02,,---,0.03,VWS V14.01,2013-04-28 08:00:00,
2013-04-28 04:05:00,54.4,51.5,30.01,North,-999,-999.0,0.0,90,0.03,,---,0.04,VWS V14.01,2013-04-28 08:05:00,
2013-04-28 04:10:00,54.4,51.5,30.02,North,-999,-999.0,0.0,90,0.03,,---,0.04,VWS V14.01,2013-04-28 08:10:00,
2013-04-28 04:15:00,54.4,51.5,30.02,North,-999,-999.0,0.0,90,0.01,,---,0.04,VWS V14.01,2013-04-28 08:15:00,
2013-04-28 04:20:00,54.4,51.5,30.03,North,-999,-999.0,0.0,90,0.01,,---,0.04,VWS V14.01,2013-04-28 08:20:00,
2013-04-28 04:25:00,54.4,51.5,30.02,North,-999,-999.0,0.0,90,0.01,,---,0.04,VWS V14.01,2013-04-28 08:25:00,
2013-04-28 04:30:00,54.4,51.5,30.02,North,-999,-999.0,0.0,90,0.01,,---,0.04,VWS V14.01,2013-04-28 08:30:00,
2013-04-28 04:35:00,54.4,51.5,30.02,North,-999,-999.0,0.0,90,0.01,,---,0.04,VWS V14.01,2013-04-28 08:35:00,
2013-04-28 04:40:00,54.2,51.3,30.01,North,-999,-999.0,0.0,90,0.02,,---,0.05,VWS V14.01,2013-04-28 08:40:00,
2013-04-28 04:43:00,54.2,51.3,30.01,North,-999,-999.0,0.0,90,0.02,,---,0.05,VWS V14.01,2013-04-28 08:43:00,
2013-04-28 04:45:00,54.2,51.3,30.01,North,-999,-999.0,0.0,90,0.02,,---,0.05,VWS V14.01,2013-04-28 08:45:00,
2013-04-28 04:51:00,54.2,51.3,30.01,North,-999,-999.0,0.0,90,0.02,,---,0.05,VWS V14.01,2013-04-28 08:51:00,
2013-04-28 05:00:00,54.4,51.5,30.02,North,-999,-999.0,0.0,90,0.02,,---,0.48,VWS V14.01,2013-04-28 09:00:00,
2013-04-28 05:06:00,54.4,51.5,30.02,North,-999,-999.0,0.0,90,0.03,,---,0.06,VWS V14.01,2013-04-28 09:06:00,
2013-04-28 07:00:00,54.2,51.3,30.00,North,-999,-999.0,0.0,90,0.05,,---,0.08,VWS V14.01,2013-04-28 11:00:00,
2013-04-28 07:06:00,54.0,51.1,29.99,North,-999,-999.0,0.0,90,0.01,,---,0.09,VWS V14.01,2013-04-28 11:06:00,
2013-04-28 07:11:00,54.2,51.3,29.98,North,-999,-999.0,0.0,90,0.02,,---,0.10,VWS V14.01,2013-04-28 11:11:00,
2013-04-28 07:16:00,54.2,51.3,29.98,North,-999,-999.0,0.0,90,0.03,,---,0.11,VWS V14.01,2013-04-28 11:16:00,
2013-04-28 07:21:00,54.2,51.3,29.98,North,-999,-999.0,0.0,90,0.04,,---,0.12,VWS V14.01,2013-04-28 11:21:00,
2013-04-28 07:26:00,54.0,51.1,29.98,North,-999,-999.0,0.0,90,0.04,,---,0.12,VWS V14.01,2013-04-28 11:26:00,
2013-04-28 07:31:00,54.0,51.1,29.98,North,-999,-999.0,0.0,90,0.04,,---,0.12,VWS V14.01,2013-04-28 11:31:00,
2013-04-28 07:36:00,54.0,51.1,29.98,North,-999,-999.0,0.0,90,0.04,,---,0.12,VWS V14.01,2013-04-28 11:36:00,
2013-04-28 07:41:00,54.0,51.4,29.98,North,-999,-999.0,0.0,91,0.04,,---,0.12,VWS V14.01,2013-04-28 11:41:00,
2013-04-28 07:46:00,54.0,51.1,29.98,North,-999,-999.0,0.0,90,0.04,,---,0.12,VWS V14.01,2013-04-28 11:46:00,
2013-04-28 07:51:00,54.0,51.1,29.98,North,-999,-999.0,0.0,90,0.04,,---,0.12,VWS V14.01,2013-04-28 11:51:00,
2013-04-28 07:56:00,54.0,51.1,29.98,North,-999,-999.0,0.0,90,0.05,,---,0.13,VWS V14.01,2013-04-28 11:56:00,
2013-04-28 08:02:00,54.0,51.1,29.98,North,-999,-999.0,0.0,90,0.05,,---,0.13,VWS V14.01,2013-04-28 12:02:00,
2013-04-28 08:07:00,54.2,51.3,29.98,North,-999,-999.0,0.0,90,0.05,,---,0.14,VWS V14.01,2013-04-28 12:07:00,
2013-04-28 08:12:00,54.4,51.5,29.99,North,-999,-999.0,0.0,90,0.04,,---,0.14,VWS V14.01,2013-04-28 12:12:00,
2013-04-28 08:16:00,54.4,51.5,29.99,North,-999,-999.0,0.0,90,0.04,,---,0.15,VWS V14.01,2013-04-28 12:16:00,
2013-04-28 08:18:00,54.4,51.5,29.99,North,-999,-999.0,0.0,90,0.04,,---,0.15,VWS V14.01,2013-04-28 12:18:00,
2013-04-28 08:24:00,54.4,51.5,29.99,North,-999,-999.0,0.0,90,0.04,,---,0.15,VWS V14.01,2013-04-28 12:24:00,
2013-04-28 09:00:00,53.6,50.7,30.02,North,-999,-999.0,0.0,90,0.28,,---,0.39,VWS V14.01,2013-04-28 13:00:00,
2013-04-28 09:06:00,53.6,50.7,30.02,North,-999,-999.0,0.0,90,0.25,,---,0.39,VWS V14.01,2013-04-28 13:06:00,
2013-04-28 10:00:00,54.2,51.6,29.98,North,-999,-999.0,0.0,91,0.30,,---,0.44,VWS V14.01,2013-04-28 14:00:00,
2013-04-28 10:06:00,54.2,51.6,29.98,North,-999,-999.0,0.0,91,0.05,,---,0.44,VWS V14.01,2013-04-28 14:06:00,
2013-04-28 12:00:00,54.2,51.6,29.98,North,-999,-999.0,0.0,91,0.24,,---,0.63,VWS V14.01,2013-04-28 16:00:00,
2013-04-28 12:05:00,54.2,51.6,29.98,North,-999,-999.0,0.0,91,0.00,,---,0.63,VWS V14.01,2013-04-28 16:05:00,
2013-04-28 13:00:00,54.7,52.1,29.97,North,-999,-999.0,0.0,91,0.12,,---,0.75,VWS V14.01,2013-04-28 17:00:00,
2013-04-28 13:05:00,54.7,52.1,29.96,North,-999,-999.0,0.0,91,0.00,,---,0.75,VWS V14.01,2013-04-28 17:05:00,
2013-04-28 13:10:00,55.1,52.5,29.96,North,-999,-999.0,0.0,91,0.01,,---,0.76,VWS V14.01,2013-04-28 17:10:00,
2013-04-28 13:16:00,55.1,52.5,29.96,North,-999,-999.0,0.0,91,0.01,,---,0.76,VWS V14.01,2013-04-28 17:16:00,
2013-04-28 13:21:00,55.1,52.5,29.96,North,-999,-999.0,0.0,91,0.01,,---,0.76,VWS V14.01,2013-04-28 17:21:00,
2013-04-28 13:26:00,55.1,52.5,29.96,North,-999,-999.0,0.0,91,0.01,,---,0.76,VWS V14.01,2013-04-28 17:26:00,
2013-04-28 13:31:00,55.1,52.5,29.96,North,-999,-999.0,0.0,91,0.01,,---,0.76,VWS V14.01,2013-04-28 17:31:00,
2013-04-28 13:36:00,55.1,52.5,29.95,North,-999,-999.0,0.0,91,0.01,,---,0.76,VWS V14.01,2013-04-28 17:36:00,
2013-04-28 13:41:00,55.1,52.5,29.95,North,-999,-999.0,0.0,91,0.02,,---,0.77,VWS V14.01,2013-04-28 17:41:00,
2013-04-28 13:46:00,55.1,52.5,29.95,North,-999,-999.0,0.0,91,0.02,,---,0.77,VWS V14.01,2013-04-28 17:46:00,
2013-04-28 13:51:00,55.1,52.5,29.95,North,-999,-999.0,0.0,91,0.02,,---,0.77,VWS V14.01,2013-04-28 17:51:00,
2013-04-28 13:56:00,55.1,52.5,29.95,North,-999,-999.0,0.0,91,0.03,,---,0.78,VWS V14.01,2013-04-28 17:56:00,
2013-04-28 14:02:00,55.1,52.5,29.94,North,-999,-999.0,0.0,91,0.03,,---,0.78,VWS V14.01,2013-04-28 18:02:00,
2013-04-28 14:07:00,55.1,52.5,29.94,North,-999,-999.0,0.0,91,0.03,,---,0.78,VWS V14.01,2013-04-28 18:07:00,
2013-04-28 14:12:00,55.1,52.5,29.94,North,-999,-999.0,0.0,91,0.03,,---,0.79,VWS V14.01,2013-04-28 18:12:00,
2013-04-28 14:17:00,55.1,52.5,29.93,North,-999,-999.0,0.0,91,0.03,,---,0.79,VWS V14.01,2013-04-28 18:17:00,
2013-04-28 14:22:00,55.1,52.5,29.93,North,-999,-999.0,0.0,91,0.03,,---,0.79,VWS V14.01,2013-04-28 18:22:00,
2013-04-28 14:27:00,55.1,52.5,29.93,North,-999,-999.0,0.0,91,0.03,,---,0.79,VWS V14.01,2013-04-28 18:27:00,
2013-04-28 14:32:00,55.1,52.5,29.93,North,-999,-999.0,0.0,91,0.04,,---,0.80,VWS V14.01,2013-04-28 18:32:00,
2013-04-28 14:37:00,55.3,52.7,29.93,North,-999,-999.0,0.0,91,0.05,,---,0.81,VWS V14.01,2013-04-28 18:37:00,
2013-04-28 14:42:00,55.3,52.7,29.92,North,-999,-999.0,0.0,91,0.05,,---,0.82,VWS V14.01,2013-04-28 18:42:00,
2013-04-28 14:47:00,55.4,52.8,29.92,North,-999,-999.0,0.0,91,0.05,,---,0.82,VWS V14.01,2013-04-28 18:47:00,
2013-04-28 14:52:00,55.4,52.8,29.92,North,-999,-999.0,0.0,91,0.05,,---,0.82,VWS V14.01,2013-04-28 18:52:00,
2013-04-28 14:57:00,55.4,52.8,29.92,North,-999,-999.0,0.0,91,0.04,,---,0.82,VWS V14.01,2013-04-28 18:57:00,
2013-04-28 15:03:00,55.4,52.8,29.92,North,-999,-999.0,0.0,91,0.04,,---,0.82,VWS V14.01,2013-04-28 19:03:00,
2013-04-28 15:08:00,55.6,53.0,29.92,North,-999,-999.0,0.0,91,0.04,,---,0.82,VWS V14.01,2013-04-28 19:08:00,
2013-04-28 15:13:00,55.6,53.0,29.92,North,-999,-999.0,0.0,91,0.03,,---,0.82,VWS V14.01,2013-04-28 19:13:00,
2013-04-28 15:18:00,55.4,52.8,29.93,North,-999,-999.0,0.0,91,0.04,,---,0.83,VWS V14.01,2013-04-28 19:18:00,
2013-04-28 15:23:00,55.4,52.8,29.93,North,-999,-999.0,0.0,91,0.06,,---,0.85,VWS V14.01,2013-04-28 19:23:00,
2013-04-28 15:28:00,55.3,52.7,29.92,North,-999,-999.0,0.0,91,0.11,,---,0.91,VWS V14.01,2013-04-28 19:28:00,
2013-04-28 15:33:00,55.3,52.7,29.92,North,-999,-999.0,0.0,91,0.13,,---,0.93,VWS V14.01,2013-04-28 19:33:00,
2013-04-28 15:38:00,55.1,52.5,29.92,North,-999,-999.0,0.0,91,0.15,,---,0.96,VWS V14.01,2013-04-28 19:38:00,
2013-04-28 15:43:00,55.1,52.5,29.92,North,-999,-999.0,0.0,91,0.16,,---,0.98,VWS V14.01,2013-04-28 19:43:00,
2013-04-28 15:48:00,55.1,52.5,29.92,North,-999,-999.0,0.0,91,0.19,,---,1.02,VWS V14.01,2013-04-28 19:48:00,
2013-04-28 15:53:00,55.1,52.5,29.92,North,-999,-999.0,0.0,91,0.23,,---,1.06,VWS V14.01,2013-04-28 19:53:00,
2013-04-28 15:58:00,55.1,52.5,29.91,North,-999,-999.0,0.0,91,0.33,,---,1.16,VWS V14.01,2013-04-28 19:58:00,
2013-04-28 16:03:00,55.1,52.5,29.91,North,-999,-999.0,0.0,91,0.39,,---,1.21,VWS V14.01,2013-04-28 20:03:00,
2013-04-28 16:09:00,55.1,52.5,29.91,North,-999,-999.0,0.0,91,0.41,,---,1.23,VWS V14.01,2013-04-28 20:09:00,
2013-04-28 16:14:00,55.1,52.5,29.90,North,-999,-999.0,0.0,91,0.44,,---,1.26,VWS V14.01,2013-04-28 20:14:00,
2013-04-28 16:19:00,55.1,52.5,29.90,North,-999,-999.0,0.0,91,0.44,,---,1.28,VWS V14.01,2013-04-28 20:19:00,
2013-04-28 16:24:00,55.1,52.8,29.90,North,-999,-999.0,0.0,92,0.46,,---,1.31,VWS V14.01,2013-04-28 20:24:00,
2013-04-28 16:29:00,54.9,52.3,29.91,North,-999,-999.0,0.0,91,0.44,,---,1.34,VWS V14.01,2013-04-28 20:29:00,
2013-04-28 16:34:00,54.9,52.3,29.91,North,-999,-999.0,0.0,91,0.52,,---,1.45,VWS V14.01,2013-04-28 20:34:00,
2013-04-28 16:39:00,54.9,52.3,29.90,North,-999,-999.0,0.0,91,0.53,,---,1.49,VWS V14.01,2013-04-28 20:39:00,
2013-04-28 16:44:00,54.9,52.6,29.90,North,-999,-999.0,0.0,92,0.53,,---,1.51,VWS V14.01,2013-04-28 20:44:00,
2013-04-28 16:49:00,55.1,52.8,29.90,North,-999,-999.0,0.0,92,0.51,,---,1.52,VWS V14.01,2013-04-28 20:49:00,
2013-04-28 16:54:00,55.1,52.8,29.90,North,-999,-999.0,0.0,92,0.48,,---,1.54,VWS V14.01,2013-04-28 20:54:00,
2013-04-28 16:59:00,55.1,52.8,29.89,North,-999,-999.0,0.0,92,0.39,,---,1.54,VWS V14.01,2013-04-28 20:59:00,
2013-04-28 17:04:00,55.3,53.0,29.90,North,-999,-999.0,0.0,92,0.33,,---,1.56,VWS V14.01,2013-04-28 21:04:00,
2013-04-28 17:10:00,55.3,53.0,29.89,North,-999,-999.0,0.0,92,0.33,,---,1.56,VWS V14.01,2013-04-28 21:10:00,
2013-04-28 17:15:00,55.3,53.0,29.89,North,-999,-999.0,0.0,92,0.33,,---,1.59,VWS V14.01,2013-04-28 21:15:00,
2013-04-28 17:20:00,55.4,53.1,29.89,North,-999,-999.0,0.0,92,0.31,,---,1.59,VWS V14.01,2013-04-28 21:20:00,
2013-04-28 17:25:00,55.4,53.1,29.89,North,-999,-999.0,0.0,92,0.30,,---,1.61,VWS V14.01,2013-04-28 21:25:00,
2013-04-28 17:30:00,55.4,53.1,29.89,North,-999,-999.0,0.0,92,0.27,,---,1.61,VWS V14.01,2013-04-28 21:30:00,
2013-04-28 17:35:00,55.6,53.3,29.88,North,-999,-999.0,0.0,92,0.16,,---,1.61,VWS V14.01,2013-04-28 21:35:00,
2013-04-28 17:40:00,55.6,53.3,29.89,North,-999,-999.0,0.0,92,0.12,,---,1.61,VWS V14.01,2013-04-28 21:40:00,
2013-04-28 17:45:00,55.6,53.3,29.89,North,-999,-999.0,0.0,92,0.11,,---,1.63,VWS V14.01,2013-04-28 21:45:00,
2013-04-28 17:50:00,55.6,53.3,29.89,North,-999,-999.0,0.0,92,0.11,,---,1.63,VWS V14.01,2013-04-28 21:50:00,
2013-04-28 17:55:00,55.6,53.3,29.89,North,-999,-999.0,0.0,92,0.10,,---,1.63,VWS V14.01,2013-04-28 21:55:00,
2013-04-28 18:00:00,55.6,53.3,29.88,North,-999,-999.0,0.0,92,0.10,,---,1.65,VWS V14.01,2013-04-28 22:00:00,
2013-04-28 18:06:00,55.8,53.5,29.88,North,-999,-999.0,0.0,92,0.09,,---,1.65,VWS V14.01,2013-04-28 22:06:00,
2013-04-28 18:11:00,55.6,53.3,29.89,North,-999,-999.0,0.0,92,0.09,,---,1.66,VWS V14.01,2013-04-28 22:11:00,
2013-04-28 18:16:00,55.6,53.3,29.90,North,-999,-999.0,0.0,92,0.07,,---,1.66,VWS V14.01,2013-04-28 22:16:00,
2013-04-28 18:21:00,55.6,53.3,29.90,North,-999,-999.0,0.0,92,0.07,,---,1.67,VWS V14.01,2013-04-28 22:21:00,
2013-04-28 18:26:00,55.8,53.5,29.89,North,-999,-999.0,0.0,92,0.07,,---,1.68,VWS V14.01,2013-04-28 22:26:00,
2013-04-28 18:31:00,55.6,53.3,29.89,North,-999,-999.0,0.0,92,0.07,,---,1.69,VWS V14.01,2013-04-28 22:31:00,
2013-04-28 18:36:00,55.8,53.5,29.89,North,-999,-999.0,0.0,92,0.08,,---,1.70,VWS V14.01,2013-04-28 22:36:00,
2013-04-28 18:41:00,55.8,53.5,29.89,North,-999,-999.0,0.0,92,0.09,,---,1.70,VWS V14.01,2013-04-28 22:41:00,
2013-04-28 18:46:00,55.8,53.5,29.89,North,-999,-999.0,0.0,92,0.09,,---,1.72,VWS V14.01,2013-04-28 22:46:00,
2013-04-28 18:51:00,55.8,53.5,29.89,North,-999,-999.0,0.0,92,0.09,,---,1.73,VWS V14.01,2013-04-28 22:51:00,
2013-04-28 18:56:00,55.8,53.5,29.89,North,-999,-999.0,0.0,92,0.10,,---,1.74,VWS V14.01,2013-04-28 22:56:00,
2013-04-28 19:02:00,55.6,53.3,29.88,North,-999,-999.0,0.0,92,0.10,,---,1.75,VWS V14.01,2013-04-28 23:02:00,
2013-04-28 19:07:00,55.6,53.3,29.88,North,-999,-999.0,0.0,92,0.12,,---,1.77,VWS V14.01,2013-04-28 23:07:00,
2013-04-28 19:12:00,55.8,53.5,29.88,North,-999,-999.0,0.0,92,0.12,,---,1.78,VWS V14.01,2013-04-28 23:12:00,
2013-04-28 19:17:00,55.6,53.3,29.88,North,-999,-999.0,0.0,92,0.14,,---,1.80,VWS V14.01,2013-04-28 23:17:00,
2013-04-28 19:22:00,55.6,53.3,29.87,North,-999,-999.0,0.0,92,0.14,,---,1.81,VWS V14.01,2013-04-28 23:22:00,
2013-04-28 19:27:00,55.6,53.3,29.88,North,-999,-999.0,0.0,92,0.14,,---,1.82,VWS V14.01,2013-04-28 23:27:00,
2013-04-28 19:32:00,55.6,53.3,29.87,North,-999,-999.0,0.0,92,0.13,,---,1.82,VWS V14.01,2013-04-28 23:32:00,
2013-04-28 19:38:00,55.4,53.1,29.89,North,-999,-999.0,0.0,92,0.13,,---,1.83,VWS V14.01,2013-04-28 23:38:00,
2013-04-28 19:43:00,55.4,53.1,29.90,North,-999,-999.0,0.0,92,0.12,,---,1.83,VWS V14.01,2013-04-28 23:43:00,
2013-04-28 19:48:00,55.4,53.1,29.90,North,-999,-999.0,0.0,92,0.12,,---,1.84,VWS V14.01,2013-04-28 23:48:00,
2013-04-28 19:53:00,55.4,53.1,29.89,North,-999,-999.0,0.0,92,0.11,,---,1.84,VWS V14.01,2013-04-28 23:53:00,
2013-04-28 19:58:00,55.4,53.1,29.90,North,-999,-999.0,0.0,92,0.11,,---,1.85,VWS V14.01,2013-04-28 23:58:00,
2013-04-28 20:04:00,55.3,53.0,29.90,North,-999,-999.0,0.0,92,0.09,,---,1.85,VWS V14.01,2013-04-29 00:04:00,
2013-04-28 20:09:00,55.3,53.0,29.89,North,-999,-999.0,0.0,92,0.09,,---,1.86,VWS V14.01,2013-04-29 00:09:00,
2013-04-28 20:14:00,55.3,53.0,29.89,North,-999,-999.0,0.0,92,0.07,,---,1.86,VWS V14.01,2013-04-29 00:14:00,
2013-04-28 20:19:00,55.1,52.8,29.89,North,-999,-999.0,0.0,92,0.06,,---,1.86,VWS V14.01,2013-04-29 00:19:00,
2013-04-28 20:24:00,55.1,52.8,29.89,North,-999,-999.0,0.0,92,0.05,,---,1.86,VWS V14.01,2013-04-29 00:24:00,
2013-04-28 20:29:00,55.1,52.8,29.89,North,-999,-999.0,0.0,92,0.04,,---,1.86,VWS V14.01,2013-04-29 00:29:00,
2013-04-28 20:34:00,54.9,52.6,29.88,North,-999,-999.0,0.0,92,0.04,,---,1.86,VWS V14.01,2013-04-29 00:34:00,
2013-04-28 20:39:00,54.9,52.6,29.87,North,-999,-999.0,0.0,92,0.03,,---,1.86,VWS V14.01,2013-04-29 00:39:00,
2013-04-28 20:44:00,54.7,52.4,29.87,North,-999,-999.0,0.0,92,0.03,,---,1.86,VWS V14.01,2013-04-29 00:44:00,
2013-04-28 20:49:00,54.7,52.4,29.87,North,-999,-999.0,0.0,92,0.02,,---,1.86,VWS V14.01,2013-04-29 00:49:00,
2013-04-28 20:54:00,54.5,52.2,29.87,North,-999,-999.0,0.0,92,0.02,,---,1.86,VWS V14.01,2013-04-29 00:54:00,
2013-04-28 20:59:00,54.5,52.2,29.87,North,-999,-999.0,0.0,92,0.01,,---,1.86,VWS V14.01,2013-04-29 00:59:00,
2013-04-28 21:04:00,54.4,52.1,29.86,North,-999,-999.0,0.0,92,0.01,,---,1.86,VWS V14.01,2013-04-29 01:04:00,
2013-04-28 21:10:00,54.4,52.1,29.86,North,-999,-999.0,0.0,92,0.00,,---,1.86,VWS V14.01,2013-04-29 01:10:00,
2013-04-28 21:15:00,54.4,52.1,29.86,North,-999,-999.0,0.0,92,0.00,,---,1.86,VWS V14.01,2013-04-29 01:15:00,
2013-04-28 21:20:00,54.4,52.1,29.87,North,-999,-999.0,0.0,92,0.00,,---,1.86,VWS V14.01,2013-04-29 01:20:00,
2013-04-28 21:25:00,54.4,52.1,29.86,North,-999,-999.0,0.0,92,0.00,,---,1.86,VWS V14.01,2013-04-29 01:25:00,
2013-04-28 21:30:00,54.4,52.1,29.87,North,-999,-999.0,0.0,92,0.00,,---,1.86,VWS V14.01,2013-04-29 01:30:00,
2013-04-28 21:35:00,54.4,52.1,29.86,North,-999,-999.0,0.0,92,0.00,,---,1.86,VWS V14.01,2013-04-29 01:35:00,
2013-04-28 21:40:00,54.4,52.1,29.87,North,-999,-999.0,0.0,92,0.00,,---,1.86,VWS V14.01,2013-04-29 01:40:00,
2013-04-28 21:45:00,54.4,52.1,29.87,North,-999,-999.0,0.0,92,0.00,,---,1.86,VWS V14.01,2013-04-29 01:45:00,
2013-04-28 21:50:00,54.4,52.1,29.87,North,-999,-999.0,0.0,92,0.00,,---,1.86,VWS V14.01,2013-04-29 01:50:00,
2013-04-28 21:55:00,54.4,52.1,29.87,North,-999,-999.0,0.0,92,0.00,,---,1.86,VWS V14.01,2013-04-29 01:55:00,
2013-04-28 22:00:00,54.4,52.1,29.87,North,-999,-999.0,0.0,92,0.00,,---,1.86,VWS V14.01,2013-04-29 02:00:00,
2013-04-28 22:06:00,54.4,52.1,29.87,North,-999,-999.0,0.0,92,0.00,,---,1.86,VWS V14.01,2013-04-29 02:06:00,
2013-04-28 22:11:00,54.4,52.1,29.87,North,-999,-999.0,0.0,92,0.00,,---,1.86,VWS V14.01,2013-04-29 02:11:00,
2013-04-28 22:16:00,54.5,52.2,29.88,North,-999,-999.0,0.0,92,0.00,,---,1.86,VWS V14.01,2013-04-29 02:16:00,
2013-04-28 22:21:00,54.5,52.2,29.88,North,-999,-999.0,0.0,92,0.00,,---,1.86,VWS V14.01,2013-04-29 02:21:00,
2013-04-28 22:26:00,54.4,52.1,29.88,North,-999,-999.0,0.0,92,0.00,,---,1.86,VWS V14.01,2013-04-29 02:26:00,
2013-04-28 22:31:00,54.4,52.1,29.88,North,-999,-999.0,0.0,92,0.00,,---,1.86,VWS V14.01,2013-04-29 02:31:00,
2013-04-28 22:36:00,54.4,52.1,29.88,North,-999,-999.0,0.0,92,0.00,,---,1.86,VWS V14.01,2013-04-29 02:36:00,
2013-04-28 22:41:00,54.4,52.1,29.88,North,-999,-999.0,0.0,92,0.00,,---,1.86,VWS V14.01,2013-04-29 02:41:00,
2013-04-28 22:46:00,54.4,52.1,29.88,North,-999,-999.0,0.0,92,0.00,,---,1.86,VWS V14.01,2013-04-29 02:46:00,
2013-04-28 22:51:00,54.4,52.1,29.88,North,-999,-999.0,0.0,92,0.00,,---,1.86,VWS V14.01,2013-04-29 02:51:00,
2013-04-28 22:56:00,54.5,52.2,29.88,North,-999,-999.0,0.0,92,0.00,,---,1.86,VWS V14.01,2013-04-29 02:56:00,
2013-04-28 23:02:00,54.5,52.2,29.88,North,-999,-999.0,0.0,92,0.00,,---,1.86,VWS V14.01,2013-04-29 03:02:00,
2013-04-28 23:07:00,54.5,52.2,29.88,North,-999,-999.0,0.0,92,0.00,,---,1.86,VWS V14.01,2013-04-29 03:07:00,
2013-04-28 23:12:00,54.4,52.1,29.87,North,-999,-999.0,0.0,92,0.00,,---,1.86,VWS V14.01,2013-04-29 03:12:00,
2013-04-28 23:17:00,54.4,52.1,29.87,North,-999,-999.0,0.0,92,0.00,,---,1.86,VWS V14.01,2013-04-29 03:17:00,
2013-04-28 23:22:00,54.5,52.2,29.87,North,-999,-999.0,0.0,92,0.00,,---,1.86,VWS V14.01,2013-04-29 03:22:00,
2013-04-28 23:27:00,54.5,52.2,29.87,North,-999,-999.0,0.0,92,0.00,,---,1.86,VWS V14.01,2013-04-29 03:27:00,
2013-04-28 23:32:00,54.5,52.2,29.87,North,-999,-999.0,0.0,92,0.00,,---,1.86,VWS V14.01,2013-04-29 03:32:00,
2013-04-28 23:37:00,54.5,52.2,29.86,North,-999,-999.0,0.0,92,0.00,,---,1.86,VWS V14.01,2013-04-29 03:37:00,
2013-04-28 23:42:00,54.7,52.4,29.86,North,-999,-999.0,0.0,92,0.00,,---,1.86,VWS V14.01,2013-04-29 03:42:00,
2013-04-28 23:47:00,54.7,52.4,29.87,North,-999,-999.0,0.0,92,0.01,,---,1.87,VWS V14.01,2013-04-29 03:47:00,
2013-04-28 23:52:00,54.7,52.4,29.87,North,-999,-999.0,0.0,92,0.01,,---,1.87,VWS V14.01,2013-04-29 03:52:00,
2013-04-28 23:57:00,54.7,52.4,29.86,North,-999,-999.0,0.0,92,0.01,,---,1.87,VWS V14.01,2013-04-29 03:57:00,